[[{"header":{"parameterUnit":"m.s-1","parameterCategory":1,"la1":30.2991,"la2":30.254,"lo1":-89.0895,"lo2":-89.0444,"dy":0.0017,"dx":0.0017,"nx":28,"ny":28,"refTime":"2024-08-26T21:00:00:Z","depth":0,"parameterNumber":2,"parameterNumberName":"U-component_of_WINDS"},"data":[0,0,0,0,0,0,0,0,0,0,0,0,0,0,0,0,0,0,0,0,0,0,0,0,0,0,0,0,0,0,0,0,0,0,0,0,0,0,0,0,0,0,0,0,0,0,0,0,0,0,0,0,0,0,0,0,0,0,-2.2757,-2.2758,0,-2.2797,-2.2797,-2.2797,-2.2774,-2.2773,-2.2772,-2.2771,-2.2811,-2.2814,-2.2816,0,0,0,0,0,0,0,0,0,0,0,0,0,-2.2663,-2.2665,-2.2757,-2.2758,-2.2758,-2.2797,-2.2797,-2.2798,-2.2775,-2.2773,-2.2772,-2.2771,-2.2811,-2.2813,-2.2816,0,0,0,0,0,0,0,0,0,0,0,0,0,-2.2703,-2.2665,-2.2757,-2.2751,-2.2751,-2.2796,-2.2797,-2.2798,-2.2775,-2.2773,-2.2772,-2.277,-2.281,-2.2813,-2.2816,-2.2869,0,0,-2.2826,-2.2827,0,0,0,0,0,0,0,0,-2.2701,-2.2707,-2.2752,-2.2752,-2.2752,-2.2779,-2.2779,-2.2822,-2.2775,-2.2766,-2.2771,-2.2769,-2.2802,-2.2806,-2.2817,-2.2871,-2.2873,-2.2826,-2.2828,-2.2829,-2.283,0,0,0,0,0,0,0,-2.2698,-2.2705,-2.2773,-2.2752,-2.2752,-2.2747,-2.2751,-2.2787,-2.2793,-2.2767,-2.2765,-2.277,-2.2802,-2.2814,-2.2818,-2.2873,-2.2826,-2.2829,-2.2831,-2.2832,-2.2974,-2.2976,0,0,0,0,0,0,-2.2696,-2.2703,-2.2771,-2.2774,-2.2722,-2.275,-2.2754,-2.2772,-2.2792,-2.2794,-2.2771,-2.2769,-2.2809,-2.2814,-2.2819,-2.2882,-2.2829,-2.2832,-2.2834,-2.2972,-2.2974,-2.2976,0,0,0,0,0,0,-2.2694,-2.2702,-2.277,-2.2738,-2.2746,-2.2754,-2.2773,-2.2774,-2.2785,-2.2796,-2.2797,-2.2783,-2.2808,-2.2814,-2.2857,-2.2883,-2.2834,-2.2837,-2.297,-2.2973,-2.2975,-2.3009,0,0,0,0,0,0,-2.2691,-2.2702,-2.2721,-2.2739,-2.2748,-2.2807,-2.2775,-2.2776,-2.2791,-2.2788,-2.2807,-2.2808,-2.2807,-2.2852,-2.286,-2.2887,-2.2839,-2.2968,-2.2971,-2.2975,-2.3006,-2.3013,-2.3019,0,0,0,0,0,-2.2688,-2.2729,-2.2722,-2.2731,-2.2773,-2.2809,-2.2814,-2.2812,-2.2793,-2.2813,-2.282,-2.2808,-2.288,-2.2857,-2.2865,-2.2893,-2.2966,-2.297,-2.2974,-2.3003,-2.3011,-2.3019,0,0,0,0,0,0,-2.2714,-2.2731,-2.2724,-2.2772,-2.2789,-2.2805,-2.283,-2.2821,-2.2844,-2.284,-2.2837,-2.2841,-2.2885,-2.2894,-2.2868,-2.2946,-2.292,-2.2926,-2.2939,-2.2947,-2.2953,-2.295,-2.2842,0,0,0,0,0,-2.2726,-2.2753,-2.2767,-2.2808,-2.2817,-2.2822,-2.2838,-2.2835,-2.2852,-2.2859,-2.2869,-2.2887,-2.2914,-2.2931,-2.2956,-2.3008,-2.3011,-2.3031,-2.3038,-2.3043,-2.3048,-2.3076,-2.3085,-2.299,-2.299,-2.299,0,0,-2.275,-2.2762,-2.278,-2.2814,-2.2826,-2.2855,-2.2828,-2.2859,-2.2881,-2.2864,-2.2904,-2.2913,-2.2933,-2.298,-2.3001,-2.2988,-2.3076,-2.3049,-2.3053,-2.3055,-2.3082,-2.3091,-2.3099,-2.2993,-2.2993,-2.2992,0,0,-2.2807,-2.282,-2.2855,-2.2869,-2.2889,-2.2893,-2.2902,-2.2919,-2.2924,-2.2965,-2.2953,-2.2979,-2.3025,-2.3039,-2.3053,-2.3118,-2.3107,-2.3127,-2.316,-2.3188,-2.3195,-2.3202,-2.3225,-2.3233,-2.3132,-2.3132,-2.3132,0,-2.2834,-2.2876,-2.2875,-2.2907,-2.2922,-2.291,-2.2946,-2.296,-2.2987,-2.2998,-2.2983,-2.3041,-2.3054,-2.3104,-2.3121,-2.3132,-2.3142,-2.3124,-2.3195,-2.3201,-2.3207,-2.3229,-2.3238,-2.3134,-2.3134,-2.3134,-2.3134,0,-2.2908,-2.2938,-2.2964,-2.2991,-2.301,-2.3044,-2.3048,-2.3068,-2.3064,-2.3069,-2.3112,-2.3127,-2.3154,-2.3167,-2.3163,-2.3218,-2.3209,-2.3195,-2.3168,-2.3218,-2.3239,-2.3247,-2.3137,-2.3137,-2.3136,-2.3135,0,0,-2.2981,-2.3008,-2.3018,-2.303,-2.3052,-2.3076,-2.311,-2.3138,-2.3154,-2.3174,-2.3203,-2.3243,-2.323,-2.3246,-2.3244,-2.3269,-2.332,-2.3252,-2.3252,-2.3263,-2.338,-2.3389,-2.3399,-2.3313,-2.3315,-2.3316,-2.3378,0,-2.3039,-2.3098,-2.3099,-2.3154,-2.3181,-2.3171,-2.3201,-2.3218,-2.3225,-2.325,-2.3257,-2.3285,-2.3267,-2.3276,-2.33,-2.3308,-2.3343,-2.3304,-2.3339,-2.3341,-2.3333,-2.341,-2.342,-2.3477,-2.3386,-2.3387,-2.3388,0,-2.3114,-2.3137,-2.3195,-2.3214,-2.3226,-2.3252,-2.3278,-2.3302,-2.3322,-2.3325,-2.3344,-2.3339,-2.3374,-2.3348,-2.3397,-2.3371,-2.3386,-2.3393,-2.3395,-2.3397,-2.3366,-2.3413,-2.3496,-2.3504,-2.3401,-2.34,-2.3399,0,-2.316,-2.3206,-2.3246,-2.3257,-2.3281,-2.33,-2.3311,-2.3329,-2.3346,-2.337,-2.3381,-2.3408,-2.3422,-2.3444,-2.3447,-2.3428,-2.3496,-2.347,-2.35,-2.35,-2.3513,-2.3512,-2.3598,-2.3525,-2.3525,-2.3525,-2.3525,0,-2.3224,-2.326,-2.3267,-2.3292,-2.3332,-2.3333,-2.3372,-2.3382,-2.3399,-2.3425,-2.3419,-2.3444,-2.3447,-2.3473,-2.3476,-2.3517,-2.3523,-2.3527,-2.3527,-2.3527,-2.3526,-2.3535,-2.3531,-2.3527,-2.3527,-2.3526,-2.3526,0,-2.3281,-2.3288,-2.3331,-2.3351,-2.3357,-2.3385,-2.3402,-2.3426,-2.3433,-2.3467,-2.3475,-2.3486,-2.3516,-2.3522,-2.3559,-2.3561,-2.3608,-2.3605,-2.3601,-2.3601,-2.3629,-2.3626,-2.3723,-2.3736,-2.3656,-2.3657,-2.3657,0,-2.3321,-2.3348,-2.3371,-2.3388,-2.34,-2.3429,-2.3446,-2.3449,-2.3468,-2.3494,-2.3515,-2.3545,-2.3569,-2.3619,-2.363,-2.3658,-2.3655,-2.3687,-2.3659,-2.3658,-2.3655,-2.3652,-2.3655,-2.3692,-2.3693,-2.3694,-2.3694,0,-2.339,-2.3392,-2.3418,-2.3445,-2.3467,-2.3488,-2.3509,-2.3524,-2.353,-2.3551,-2.3583,-2.3602,-2.364,-2.367,-2.3698,-2.371,-2.3703,-2.3704,-2.3712,-2.3711,-2.3707,-2.3709,-2.3615,-2.3701,-2.37,-2.3699,-2.3699,-2.3699,-2.3439,-2.3463,-2.3483,-2.3512,-2.3528,-2.3548,-2.3571,-2.3582,-2.3608,-2.3639,-2.364,-2.3674,-2.3695,-2.3733,-2.3746,-2.3774,-2.3764,-2.3775,-2.3778,-2.3781,-2.3783,-2.3704,-2.3779,-2.3779,-2.3779,-2.3779,-2.3779,0,-2.3507,-2.352,-2.3547,-2.3576,-2.3599,-2.3592,-2.3615,-2.3635,-2.3665,-2.3685,-2.371,-2.3747,-2.3776,-2.3791,-2.382,-2.384,-2.3837,-2.3847,-2.3845,-2.3848,-2.3791,-2.378,-2.3849,-2.3849,-2.3849,-2.3849,-2.3849,-2.3848,-2.3545,-2.3585,-2.359,-2.3638,-2.3651,-2.3685,-2.3698,-2.3717,-2.3733,-2.3774,-2.3799,-2.3809,-2.3827,-2.3858,-2.3885,-2.3889,-2.39,-2.3911,-2.3913,-2.3859,-2.3852,-2.3845,-2.3835,-2.3913,-2.3914,-2.3967,-2.3968,-2.3968]},{"header":{"parameterUnit":"m.s-1","parameterCategory":1,"la1":30.2991,"la2":30.254,"lo1":-89.0895,"lo2":-89.0444,"dy":0.0017,"dx":0.0017,"nx":28,"ny":28,"refTime":"2024-08-26T21:00:00:Z","depth":0,"parameterNumber":3,"parameterNumberName":"V-component_of_WINDS"},"data":[0,0,0,0,0,0,0,0,0,0,0,0,0,0,0,0,0,0,0,0,0,0,0,0,0,0,0,0,0,0,0,0,0,0,0,0,0,0,0,0,0,0,0,0,0,0,0,0,0,0,0,0,0,0,0,0,0,0,1.592,1.5921,0,1.5974,1.5975,1.5976,1.6051,1.6052,1.6053,1.6055,1.6107,1.6108,1.6108,0,0,0,0,0,0,0,0,0,0,0,0,0,1.5878,1.5879,1.592,1.5921,1.5922,1.5974,1.5975,1.5976,1.6051,1.6052,1.6054,1.6055,1.6107,1.6108,1.6108,0,0,0,0,0,0,0,0,0,0,0,0,0,1.5911,1.5879,1.592,1.5965,1.597,1.5974,1.5975,1.5976,1.605,1.6052,1.6054,1.6056,1.6107,1.6108,1.6108,1.6071,0,0,1.6109,1.6109,0,0,0,0,0,0,0,0,1.5909,1.5912,1.5958,1.5962,1.5967,1.6008,1.598,1.6008,1.605,1.602,1.6055,1.6057,1.6073,1.6076,1.6082,1.6074,1.6076,1.6109,1.6109,1.6109,1.6109,0,0,0,0,0,0,0,1.5906,1.591,1.5942,1.5958,1.5964,1.5982,1.5989,1.5985,1.6035,1.6022,1.6028,1.6034,1.6075,1.6081,1.6083,1.6077,1.6109,1.6109,1.6109,1.6109,1.6041,1.6039,0,0,0,0,0,0,1.5898,1.5908,1.594,1.5943,1.5942,1.5981,1.5989,1.5993,1.6035,1.6043,1.6032,1.6037,1.608,1.6083,1.6086,1.6045,1.6109,1.6109,1.611,1.6043,1.6041,1.6038,0,0,0,0,0,0,1.5897,1.59,1.5938,1.5927,1.5933,1.598,1.5984,1.5993,1.5999,1.6042,1.6051,1.6029,1.6081,1.6085,1.6074,1.6048,1.611,1.611,1.6045,1.6042,1.6039,1.5964,0,0,0,0,0,0,1.5895,1.5899,1.5886,1.5926,1.5934,1.5926,1.5982,1.5993,1.6,1.6007,1.6042,1.6049,1.6083,1.6073,1.6075,1.6049,1.611,1.6048,1.6044,1.604,1.5969,1.5958,1.595,0,0,0,0,0,1.5893,1.5863,1.5885,1.5889,1.5919,1.5924,1.5929,1.5969,1.5997,1.5984,1.6012,1.6048,1.6051,1.6072,1.6074,1.6048,1.605,1.6045,1.6041,1.5973,1.596,1.595,0,0,0,0,0,0,1.5818,1.5869,1.5895,1.5876,1.5895,1.5937,1.5922,1.5955,1.5966,1.5972,1.6021,1.6028,1.6011,1.6029,1.6051,1.6015,1.6056,1.6051,1.6003,1.5992,1.5983,1.5978,1.611,0,0,0,0,0,1.5799,1.58,1.5844,1.5824,1.5832,1.5875,1.5879,1.5909,1.5931,1.5939,1.5966,1.5985,1.599,1.5992,1.5999,1.5972,1.598,1.5955,1.5946,1.5938,1.5933,1.5919,1.5908,1.6023,1.6024,1.6024,0,0,1.576,1.5788,1.5786,1.5809,1.5828,1.5827,1.5882,1.5879,1.5878,1.5938,1.593,1.595,1.5974,1.5955,1.5947,1.5969,1.5903,1.5932,1.5925,1.5925,1.5913,1.5902,1.5892,1.602,1.6021,1.6021,0,0,1.5688,1.571,1.5695,1.5712,1.574,1.5769,1.5765,1.5802,1.5818,1.581,1.5855,1.5855,1.5863,1.5878,1.5887,1.582,1.5853,1.5821,1.5771,1.5756,1.5747,1.574,1.5715,1.5705,1.5817,1.5816,1.5816,0,1.5636,1.5637,1.5682,1.5676,1.5685,1.574,1.5724,1.5739,1.5767,1.5771,1.5795,1.5806,1.5826,1.5811,1.5794,1.58,1.5796,1.5817,1.5745,1.5738,1.5731,1.5708,1.5699,1.5812,1.5813,1.5813,1.5813,0,1.5571,1.5571,1.5555,1.5582,1.5588,1.5577,1.562,1.5621,1.565,1.5676,1.5667,1.5693,1.5706,1.5705,1.5733,1.5693,1.5705,1.5736,1.5778,1.5715,1.5694,1.5686,1.5806,1.5808,1.5809,1.581,0,0,1.5452,1.5504,1.5497,1.551,1.5544,1.5544,1.5535,1.5549,1.5549,1.5566,1.5559,1.5564,1.5594,1.5603,1.5634,1.5621,1.5565,1.5654,1.5655,1.5636,1.5522,1.5497,1.5486,1.5588,1.5587,1.5585,1.5519,0,1.5386,1.5375,1.5415,1.5393,1.5393,1.5445,1.5437,1.5457,1.5481,1.5483,1.551,1.5512,1.5551,1.5557,1.5547,1.5574,1.5543,1.558,1.5581,1.558,1.5572,1.5475,1.545,1.5386,1.5511,1.551,1.5509,0,1.5308,1.5322,1.5299,1.5334,1.5336,1.5328,1.5343,1.5346,1.5369,1.5387,1.5398,1.5433,1.5425,1.5466,1.5456,1.548,1.5483,1.5496,1.5495,1.5495,1.554,1.5472,1.5367,1.5356,1.5497,1.5498,1.5499,0,1.5222,1.5235,1.5223,1.5232,1.5273,1.5266,1.5283,1.5308,1.5313,1.5326,1.533,1.5342,1.5348,1.5356,1.5393,1.5419,1.5378,1.5422,1.5392,1.539,1.538,1.538,1.5272,1.5383,1.5383,1.5383,1.5383,0,1.5144,1.5128,1.5185,1.5178,1.5161,1.5207,1.5189,1.5211,1.5232,1.5229,1.5275,1.5271,1.5321,1.5322,1.5351,1.5337,1.534,1.5354,1.5361,1.5349,1.5347,1.5351,1.5356,1.5381,1.5381,1.5382,1.5382,0,1.5045,1.5083,1.5073,1.5113,1.5123,1.5108,1.5142,1.5136,1.5163,1.5158,1.516,1.5202,1.5205,1.5243,1.5255,1.5275,1.5249,1.5266,1.5242,1.5247,1.5214,1.5216,1.5104,1.5091,1.5211,1.521,1.5209,0,1.4992,1.4981,1.5019,1.5021,1.5035,1.5037,1.5043,1.5088,1.5092,1.5117,1.5107,1.5115,1.5123,1.5127,1.5157,1.5167,1.5183,1.5143,1.5185,1.5172,1.5181,1.5181,1.518,1.5134,1.5132,1.5131,1.513,0,1.4893,1.4912,1.492,1.4933,1.4939,1.4951,1.4966,1.4965,1.5014,1.5016,1.502,1.5027,1.5039,1.5045,1.506,1.5076,1.511,1.5117,1.511,1.5097,1.5083,1.5089,1.5217,1.5119,1.512,1.5121,1.5121,1.5122,1.4815,1.4807,1.4833,1.4839,1.4855,1.4868,1.4865,1.4891,1.4896,1.491,1.4936,1.4936,1.4959,1.4982,1.4995,1.4996,1.5017,1.5007,1.5004,1.5001,1.4994,1.5083,1.4999,1.4999,1.5,1.5,1.5,0,1.4718,1.4737,1.4742,1.4762,1.4766,1.48,1.4818,1.4819,1.4819,1.4838,1.4845,1.485,1.4857,1.4888,1.4898,1.4892,1.4908,1.4893,1.4893,1.4896,1.4976,1.498,1.488,1.488,1.488,1.488,1.488,1.488,1.4667,1.4656,1.4678,1.4675,1.4694,1.4695,1.4703,1.4715,1.473,1.4733,1.4739,1.476,1.4783,1.4795,1.4802,1.4811,1.4812,1.4792,1.4806,1.4879,1.4891,1.4902,1.4906,1.4792,1.4792,1.4726,1.4726,1.4725]}]]